| time (UTC) | temp F | wind direction | speed MPH | gust MPH | rain 1hr in | rain 24hr in | rain mn in | humidity % | barometer mb |
| 20260903154552 | 75 | 261 | 0.0 | 0.0 | 0.00 | 0.44 | 0.15 | 89 | 1013.6 |
| 20260903153047 | 74 | 173 | 0.0 | 0.0 | 0.00 | 0.44 | 0.15 | 92 | 1013.3 |
| 20260903151543 | 73 | 184 | 0.0 | 1.0 | 0.00 | 0.44 | 0.15 | 94 | 1013.6 |
| 20260903150100 | 72 | 187 | 0.0 | 0.0 | 0.00 | 0.44 | 0.15 | 95 | 1013.6 |
| 20260903144537 | 71 | 202 | 0.0 | 0.0 | 0.00 | 0.44 | 0.15 | 95 | 1013.6 |
| 20260903143038 | 70 | 212 | 0.0 | 0.0 | 0.00 | 0.44 | 0.15 | 95 | 1013.7 |
| 20260903141536 | 70 | 213 | 0.0 | 0.0 | 0.00 | 0.44 | 0.15 | 95 | 1013.8 |
| 20260903140030 | 70 | 212 | 0.0 | 0.0 | 0.00 | 0.44 | 0.15 | 95 | 1013.7 |
| 20260903134530 | 70 | 219 | 0.0 | 0.0 | 0.00 | 0.44 | 0.15 | 95 | 1013.8 |
| 20260903133028 | 69 | 222 | 0.0 | 0.0 | 0.00 | 0.44 | 0.15 | 95 | 1013.8 |
| 20260903131526 | 69 | 205 | 0.0 | 0.0 | 0.00 | 0.44 | 0.15 | 95 | 1013.7 |
| 20260903130023 | 69 | 175 | 0.0 | 0.0 | 0.00 | 0.44 | 0.15 | 95 | 1013.9 |
| 20260903124524 | 69 | 173 | 0.0 | 0.0 | 0.00 | 0.44 | 0.15 | 95 | 1014.1 |
| 20260903123027 | 68 | 171 | 0.0 | 0.0 | 0.00 | 0.44 | 0.15 | 95 | 1014.5 |
| 20260903121518 | 68 | 171 | 0.0 | 0.0 | 0.00 | 0.44 | 0.15 | 95 | 1014.5 |
| 20260903120017 | 68 | 171 | 0.0 | 0.0 | 0.00 | 0.44 | 0.15 | 95 | 1014.6 |
| 20260903114514 | 68 | 171 | 0.0 | 0.0 | 0.00 | 0.44 | 0.15 | 95 | 1014.4 |
| 20260903113012 | 67 | 171 | 0.0 | 0.0 | 0.00 | 0.44 | 0.15 | 95 | 1014.5 |
| 20260903111510 | 67 | 171 | 0.0 | 0.0 | 0.00 | 0.44 | 0.15 | 95 | 1014.4 |
| 20260903110009 | 67 | 171 | 0.0 | 0.0 | 0.00 | 0.44 | 0.15 | 95 | 1014.5 |
| 20260903104508 | 67 | 171 | 0.0 | 0.0 | 0.00 | 0.44 | 0.15 | 95 | 1014.2 |
| 20260903103007 | 68 | 171 | 0.0 | 0.0 | 0.00 | 0.44 | 0.15 | 95 | 1014.6 |
| 20260903101507 | 68 | 164 | 0.0 | 0.0 | 0.00 | 0.44 | 0.15 | 95 | 1014.2 |
| 20260903100018 | 68 | 163 | 0.0 | 0.0 | 0.00 | 0.44 | 0.15 | 95 | 1014.2 |
| 20260903094506 | 68 | 169 | 0.0 | 1.0 | 0.00 | 0.44 | 0.15 | 95 | 1013.9 |
| 20260903093005 | 68 | 178 | 0.0 | 0.0 | 0.00 | 0.44 | 0.15 | 95 | 1014.0 |
| 20260903091504 | 68 | 178 | 0.0 | 0.0 | 0.00 | 0.44 | 0.15 | 95 | 1014.0 |
| 20260903090008 | 67 | 224 | 0.0 | 0.0 | 0.00 | 0.44 | 0.15 | 95 | 1014.0 |
| 20260903084501 | 67 | 185 | 0.0 | 0.0 | 0.01 | 0.44 | 0.15 | 95 | 1013.9 |
| 20260903083100 | 67 | 180 | 0.0 | 0.0 | 0.01 | 0.44 | 0.15 | 95 | 1014.2 |
| 20260903081557 | 67 | 196 | 0.0 | 0.0 | 0.01 | 0.44 | 0.15 | 95 | 1014.7 |
| 20260903080055 | 67 | 196 | 0.0 | 0.0 | 0.02 | 0.44 | 0.15 | 95 | 1014.8 |
| 20260903074554 | 67 | 196 | 0.0 | 0.0 | 0.01 | 0.43 | 0.14 | 95 | 1014.6 |
| 20260903073053 | 67 | 190 | 0.0 | 0.0 | 0.01 | 0.43 | 0.14 | 95 | 1014.8 |
| 20260903071621 | 67 | 171 | 0.0 | 1.0 | 0.01 | 0.43 | 0.14 | 95 | 1014.8 |
| 20260903064549 | 66 | 252 | 0.0 | 0.0 | 0.01 | 0.42 | 0.13 | 95 | 1015.1 |
| 20260903063048 | 66 | 284 | 0.0 | 0.0 | 0.02 | 0.42 | 0.13 | 95 | 1015.1 |
| 20260903061547 | 66 | 284 | 0.0 | 0.0 | 0.04 | 0.42 | 0.13 | 95 | 1015.4 |
| 20260903060048 | 66 | 284 | 0.0 | 0.0 | 0.09 | 0.42 | 0.13 | 95 | 1016.1 |
| 20260903054547 | 66 | 284 | 0.0 | 0.0 | 0.11 | 0.42 | 0.12 | 95 | 1016.0 |
| 20260903053043 | 66 | 287 | 0.0 | 0.0 | 0.11 | 0.41 | 0.11 | 95 | 1015.9 |
| 20260903051544 | 66 | 287 | 0.0 | 0.0 | 0.09 | 0.39 | 0.09 | 95 | 1016.8 |
| 20260903050046 | 66 | 287 | 0.0 | 0.0 | 0.04 | 0.34 | 0.04 | 95 | 1017.9 |
| 20260903044543 | 66 | 287 | 0.0 | 0.0 | 0.01 | 0.31 | 0.01 | 95 | 1017.3 |
| 20260903043035 | 66 | 289 | 0.0 | 0.0 | 0.00 | 0.30 | 0.00 | 95 | 1017.4 |
| 20260903041536 | 66 | 289 | 0.0 | 0.0 | 0.00 | 0.30 | 0.00 | 95 | 1017.1 |
| 20260903040039 | 66 | 289 | 0.0 | 0.0 | 0.00 | 0.30 | 0.00 | 95 | 1017.6 |
| 20260903034531 | 66 | 289 | 0.0 | 0.0 | 0.00 | 0.30 | 0.30 | 95 | 1017.7 |
| 20260903033032 | 66 | 289 | 0.0 | 0.0 | 0.00 | 0.30 | 0.30 | 95 | 1017.5 |
| 20260903031530 | 66 | 289 | 0.0 | 0.0 | 0.00 | 0.30 | 0.30 | 95 | 1017.2 |
| 20260903030031 | 66 | 289 | 0.0 | 0.0 | 0.00 | 0.30 | 0.30 | 94 | 1017.4 |
| 20260903024529 | 65 | 289 | 0.0 | 0.0 | 0.00 | 0.30 | 0.30 | 94 | 1017.7 |
| 20260903023037 | 65 | 281 | 0.0 | 0.0 | 0.00 | 0.30 | 0.30 | 94 | 1017.8 |
| 20260903021529 | 65 | 281 | 0.0 | 0.0 | 0.00 | 0.30 | 0.30 | 94 | 1017.9 |
| 20260903020033 | 65 | 280 | 0.0 | 0.0 | 0.00 | 0.30 | 0.30 | 94 | 1018.1 |
| 20260903014527 | 65 | 217 | 0.0 | 0.0 | 0.00 | 0.30 | 0.30 | 94 | 1017.8 |
| 20260903013026 | 65 | 217 | 0.0 | 0.0 | 0.00 | 0.30 | 0.30 | 94 | 1017.9 |
| 20260903011527 | 65 | 217 | 0.0 | 0.0 | 0.00 | 0.30 | 0.30 | 94 | 1018.3 |
| 20260903010028 | 65 | 217 | 0.0 | 0.0 | 0.00 | 0.30 | 0.30 | 94 | 1018.5 |
| 20260903004535 | 65 | 217 | 0.0 | 0.0 | 0.00 | 0.30 | 0.30 | 94 | 1018.6 |
| 20260903003024 | 64 | 217 | 0.0 | 0.0 | 0.00 | 0.30 | 0.30 | 94 | 1018.9 |
| 20260903001527 | 65 | 217 | 0.0 | 0.0 | 0.00 | 0.30 | 0.30 | 94 | 1018.2 |
| 20260903000040 | 65 | 270 | 0.0 | 0.0 | 0.00 | 0.30 | 0.30 | 94 | 1017.6 |
| 20260902234529 | 65 | 294 | 0.0 | 0.0 | 0.00 | 0.30 | 0.30 | 94 | 1017.8 |
| 20260902233021 | 65 | 284 | 0.0 | 0.0 | 0.00 | 0.30 | 0.30 | 94 | 1017.8 |
| 20260902231522 | 65 | 335 | 0.0 | 0.0 | 0.00 | 0.30 | 0.30 | 94 | 1018.1 |
| 20260902230122 | 65 | 335 | 0.0 | 0.0 | 0.00 | 0.30 | 0.30 | 94 | 1018.4 |
| 20260902224521 | 65 | 338 | 0.0 | 0.0 | 0.00 | 0.30 | 0.30 | 94 | 1018.6 |
| 20260902223020 | 65 | 350 | 0.0 | 0.0 | 0.00 | 0.30 | 0.30 | 94 | 1018.8 |
| 20260902221520 | 65 | 350 | 0.0 | 0.0 | 0.00 | 0.30 | 0.30 | 94 | 1019.2 |
| 20260902220019 | 65 | 348 | 0.0 | 0.0 | 0.00 | 0.30 | 0.30 | 94 | 1019.2 |
| 20260902214539 | 65 | 347 | 0.0 | 0.0 | 0.00 | 0.30 | 0.30 | 94 | 1019.1 |
| 20260902213018 | 65 | 343 | 0.0 | 0.0 | 0.00 | 0.30 | 0.30 | 94 | 1018.9 |
| 20260902211518 | 65 | 355 | 0.0 | 0.0 | 0.00 | 0.30 | 0.30 | 93 | 1018.7 |
| 20260902210017 | 65 | 31 | 0.0 | 0.0 | 0.00 | 0.30 | 0.30 | 93 | 1018.9 |
| 20260902204516 | 65 | 321 | 0.0 | 0.0 | 0.00 | 0.30 | 0.30 | 93 | 1019.0 |
| 20260902203015 | 65 | 350 | 0.0 | 0.0 | 0.00 | 0.30 | 0.30 | 93 | 1018.6 |
| 20260902201515 | 65 | 350 | 0.0 | 0.0 | 0.01 | 0.30 | 0.30 | 93 | 1018.6 |
| 20260902200017 | 65 | 70 | 0.0 | 0.0 | 0.03 | 0.30 | 0.30 | 93 | 1018.7 |
| 20260902194517 | 65 | 360 | 0.0 | 0.0 | 0.11 | 0.30 | 0.30 | 93 | 1018.6 |
| 20260902193114 | 65 | 67 | 0.0 | 0.0 | 0.28 | 0.30 | 0.30 | 92 | 1018.9 |
| 20260902191514 | 65 | 67 | 0.0 | 0.0 | 0.28 | 0.28 | 0.28 | 92 | 1019.3 |
| 20260902190012 | 65 | 69 | 0.0 | 0.0 | 0.26 | 0.27 | 0.27 | 92 | 1019.3 |
| 20260902184512 | 66 | 69 | 0.0 | 0.0 | 0.18 | 0.19 | 0.19 | 91 | 1019.8 |
| 20260902183010 | 67 | 31 | 0.0 | 0.0 | 0.00 | 0.01 | 0.01 | 89 | 1020.3 |
| 20260902181509 | 67 | 355 | 0.0 | 0.0 | 0.00 | 0.01 | 0.01 | 87 | 1019.0 |
| 20260902180008 | 67 | 9 | 0.0 | 0.0 | 0.00 | 0.01 | 0.01 | 87 | 1019.3 |
| 20260902174519 | 67 | 30 | 0.0 | 0.0 | 0.00 | 0.01 | 0.01 | 87 | 1019.4 |
| 20260902173007 | 68 | 345 | 0.0 | 0.0 | 0.00 | 0.01 | 0.01 | 87 | 1019.4 |
| 20260902171505 | 67 | 18 | 0.0 | 0.0 | 0.00 | 0.01 | 0.01 | 89 | 1019.3 |
| 20260902170004 | 67 | 257 | 0.0 | 0.0 | 0.00 | 0.01 | 0.01 | 89 | 1019.6 |
| 20260902164501 | 67 | 200 | 0.0 | 0.0 | 0.00 | 0.04 | 0.01 | 90 | 1019.8 |
| 20260902163101 | 67 | 217 | 0.0 | 0.0 | 0.00 | 0.04 | 0.01 | 90 | 1019.7 |
| 20260902161601 | 66 | 257 | 0.0 | 0.0 | 0.00 | 0.04 | 0.01 | 89 | 1019.6 |
| 20260902160059 | 66 | 342 | 0.0 | 0.0 | 0.00 | 0.04 | 0.01 | 90 | 1019.8 |